Starlink 5335

operational
NORAD ID: 56508 Int'l Des: 2023-065 Owner: SPXS Country: US Constellation: starlink
LEOCIRCULAR

About Starlink 5335

Description loading...

Live Position

Loading 3D Globe...

Upcoming Passes

Altitude History

Altitude vs Time

uPlot chart will show altitude changes over time

Two-Line Element Set

1 56508U 23065F 25259.79631356 -.00000264 00000-0 -44586-5 0 9999
2 56508 43.0040 75.4908 0001198 270.8397 89.2308 15.02531541130466
Epoch: Sep 16, 2025 • Age: 27 hours

Current Status

Altitude 561.4 km
Velocity 7.58 km/s
Sub-Earth Point -14.24°S, 84.45°E
Launch Date May 14, 2023
Age 2.3 years
Type internet

Technical Details

Classification Payload
Mass 305.00 kg
Dry Mass 290.00 kg
Total Mass 305.00 kg
Length 0.20 m
Diameter 2.80 m
Span 9.00 m
Shape Box + pan
Manufacturer SPXS
Bus Type Starlink
Phase Status In Orbit
Owner/State SPXS/US

Large Constellations

Loading constellations...